Location: ??????
(38.3184°N, 23.6932°E)
Time: 01:03:32
(UTC+00:00)

CZ-4 R/B - Pass Details

Date: 16 October 2021
Orbit: 531 x 595 km, 97.8° (Epoch: 04 December)

Event Time Altitude Azimuth Distance (km) Brightness Sun altitude
Rises 16:25:26 0° 135° (SE) 2,696 4.5 -8.5°
Reaches altitude 10° 16:27:52 10° 120° (ESE) 1,819 3.5 -9.0°
Maximum altitude 16:30:55 22° 69° (ENE) 1,239 2.5 -9.6°
Drops below altitude 10° 16:34:02 10° 18° (NNE) 1,860 3.8 -10.2°
Sets 16:36:33 0° 3° (N) 2,774 4.8 -10.7°
